STARLINK-4706, 53779

Orbit data source: Space-Track

STARLINK-4706, 53779 is a payload satellite owned by SpaceX/Seattle (US) in LEO that was launched on Sun, 11 Sep 2022 UTC via an FALCON 9 launch vehicle from the Air Force Eastern Test Range (AFETR). Payload-class satellites include a variety of spacecraft equipped with specific instruments for various scientific and technological missions. These include communications satellites like Starlink; space stations such as the ISS; scientific satellites like the Hubble; Earth observation satellites from companies like Planet Labs, Umbra, and HawkEye 360; GPS; miniature CubeSats for education and research; and military/defense satellites.

Loading next visibility...
Identifier
53779, 2022-111G
Orbit
LEO
Country
Flag of USUS
Related business
Manufacturer
SpaceX/Seattle
Mission
Operational Commercial Communications
Bus & Motor
STARLINK, Unknown motor
Mass
305 kg wet, ~290 kg dry
Launch date (UTC)
2022-09-11 (3 years ago)
Launch vehicle
FALCON 9
Launch site
Air Force Eastern Test Range (AFETR)
Object type
Payload
Rocket body
Debris
Shape & HBR
Box + 1 Pan, 10.1 m
Radar Cross Section
13.562 m², Large (>1 m²)

Expand to show TLE details & history
Last TLE update: 12 hours ago

TLE from 12 hours ago
0 STARLINK-4706
1 53779U 22111G   25286.49843643  .00000294  00000-0  36582-4 0  9995
2 53779  53.2165 215.0040 0001321  89.2709 270.8434 15.08844006171473
Epoch: 2025-10-13T11:57Z
TLE epoch observation values (Epoch: 2025-10-13T11:57:44.907Z)
Latitude
-0.00007°
Longitude
13.26649°
Altitude
540.615 km
Speed
7.593 km/s
True Right ascension
14h 20m 00s
True Declination
0° 00' 00"
Sunlit
Object was in daylight at epoch
Visualization orbit readout
Latitude
Unknown
Longitude
Unknown
Altitude
Unknown
Speed
Unknown
Apparent Right ascension
Unknown
Apparent Declination
Unknown
Sunlit
N/A
Visualization observer readout
Local Sidereal Time
18:49:15
Azimuth
Unknown
Elevation
Unknown
Doppler factor
Unknown
Orbital elements
Apogee altitude
540.89 km
Perigee altitude
539.062 km
Semi-major axis
6,918.113 km
Eccentricity
0.00013
Inclination
53.2165°
RAAN
215.004°
Arg. of periapsis
89.2709°
True anomaly
270.82826°
Mean anomaly
270.8434°
Eccentric anomaly
270.83583°
Mean motion
3.77191 °/min
Orbital period
95.44 mins
BSTAR
0.000036582
Loading maneuver chart data...
Computing Atmospheric mass density...
Loading historical data...
Loading historical data...
Loading historical data...
Loading historical data...
Loading historical data...
Loading historical data...
Loading historical data...

Documentation

Showing up to 5 results
|